Ringgold, VA

7:59 AM EST on February 12, 2016 (GMT -0500)
Danville Regional

Weather History for KDAN - February, 2014

Change the Weather History Date:

Saturday, February 15, 2014

  Actual Average Record
Temperature  
Mean Temperature 38 °F 41 °F  
Max Temperature 44 °F 50 °F 76 °F (1990)
Min Temperature 31 °F 32 °F 17 °F (1963)
Degree Days  
Heating Degree Days 27 24  
Month to date heating degree days 398 380  
Since 1 July heating degree days 2734 2708  
Moisture  
Dew Point 27 °F    
Average Humidity 65    
Maximum Humidity 92    
Minimum Humidity 37    
Precipitation  
Precipitation 0.09 in 0.11 in 1.07 in (1953)
Month to date precipitation 1.62 1.66  
Year to date precipitation 4.91 5.08  
Snow  
Snow 0.00 in - - ()
Month to date snowfall 6.3  
Since 1 July snowfall 7.9  
Snow Depth 3.00 in    
Sea Level Pressure  
Sea Level Pressure 29.72 in    
Wind  
Wind Speed 10 mph (WNW)    
Max Wind Speed 29 mph    
Max Gust Speed 39 mph    
Visibility 8 miles    
Events Rain    
T = Trace of Precipitation, MM = Missing Value Source: NWS Daily Summary

Daily Weather History Graph

Daily Weather History Graph

Search for Another Location

Airport or City:

Trip Planner

Search our weather history database for the weather conditions in past years. The results will help you decide how hot, cold, wet, or windy it might be!

Date:

Astronomy

Feb. 15, 2014 Rise Set
Actual Time 7:05 AM EST 5:58 PM EST
Civil Twilight 6:38 AM EST 6:24 PM EST
Nautical Twilight 6:08 AM EST 6:54 PM EST
Astronomical Twilight 5:38 AM EST 7:24 PM EST
Moon 6:53 PM EST (2/15) 7:05 AM EST (2/15)
Length of Visible Light 11h 45m
Length of Day
10h 52m
Full, 100% of the Moon is Illuminated
Feb 15
Full
Feb 22
Last Quarter
Mar 1
New
Mar 8
First Quarter
Mar 16
Full

Hourly Weather History & Observations

Time (EST) Temp. Windchill Dew Point Humidity Pressure Visibility Wind Dir Wind Speed Gust Speed Precip Events Conditions
12:53 AM 43.0 °F - 30.0 °F 60% 29.65 in 10.0 mi Calm Calm - N/A   Clear
1:53 AM 43.0 °F 39.5 °F 30.0 °F 60% 29.62 in 10.0 mi South 5.8 mph - N/A   Mostly Cloudy
2:53 AM 43.0 °F 39.5 °F 30.0 °F 60% 29.61 in 10.0 mi South 5.8 mph - N/A   Overcast
3:53 AM 41.0 °F 38.0 °F 32.0 °F 70% 29.60 in 10.0 mi Variable 4.6 mph - 0.00 in Rain Light Rain
4:53 AM 36.0 °F 33.3 °F 33.1 °F 89% 29.57 in 10.0 mi North 3.5 mph - 0.01 in Rain Light Rain
5:53 AM 37.0 °F 34.5 °F 35.1 °F 93% 29.57 in 8.0 mi East 3.5 mph - 0.01 in   Overcast
6:53 AM 37.0 °F - 35.1 °F 93% 29.56 in 4.0 mi Calm Calm - 0.04 in Rain Light Rain
7:04 AM 35.6 °F - 35.6 °F 100% 29.57 in 2.5 mi Calm Calm - 0.00 in Rain Light Rain
7:07 AM 37.4 °F - 35.6 °F 93% 29.57 in 3.0 mi Calm Calm - 0.01 in Rain Light Rain
7:27 AM 35.6 °F - 35.6 °F 100% 29.56 in 1.8 mi Calm Calm - 0.01 in Rain Light Rain
7:53 AM 37.0 °F - 35.1 °F 93% 29.56 in 0.8 mi Calm Calm - 0.01 in   Overcast
8:00 AM 37.4 °F 34.9 °F 35.6 °F 93% 29.58 in 2.0 mi NW 3.5 mph - 0.00 in   Overcast
8:19 AM 37.4 °F 32.8 °F 35.6 °F 93% 29.58 in 3.0 mi NW 5.8 mph - 0.01 in   Overcast
8:35 AM 37.4 °F 31.4 °F 35.6 °F 93% 29.59 in 3.0 mi NNW 8.1 mph - 0.01 in Rain Light Rain
8:45 AM 37.4 °F 33.8 °F 35.6 °F 93% 29.59 in 3.0 mi NW 4.6 mph - 0.02 in Rain Light Rain
8:53 AM 37.9 °F 32.1 °F 35.1 °F 89% 29.58 in 6.0 mi NW 8.1 mph - 0.02 in Rain Light Rain
9:06 AM 39.2 °F 33.6 °F 35.6 °F 87% 29.60 in 10.0 mi NW 8.1 mph - 0.00 in   Overcast
9:53 AM 39.0 °F 32.3 °F 35.1 °F 86% 29.60 in 10.0 mi NW 10.4 mph - 0.00 in   Overcast
10:53 AM 42.1 °F 32.6 °F 28.0 °F 58% 29.63 in 10.0 mi NNW 23.0 mph 33.4 mph N/A   Mostly Cloudy
11:53 AM 42.1 °F 32.8 °F 23.0 °F 47% 29.68 in 10.0 mi NNW 21.9 mph 33.4 mph N/A   Clear
12:53 PM 41.0 °F 31.1 °F 21.0 °F 45% 29.72 in 10.0 mi NNW 23.0 mph 31.1 mph N/A   Clear
1:53 PM 39.9 °F 30.5 °F 19.9 °F 45% 29.75 in 10.0 mi West 19.6 mph 27.6 mph N/A   Clear
2:53 PM 39.0 °F 29.9 °F 16.0 °F 39% 29.80 in 10.0 mi WNW 17.3 mph 29.9 mph N/A   Clear
3:53 PM 37.9 °F 28.2 °F 16.0 °F 41% 29.86 in 10.0 mi WNW 18.4 mph 26.5 mph N/A   Clear
4:53 PM 37.0 °F 28.9 °F 15.1 °F 41% 29.89 in 10.0 mi WNW 12.7 mph 25.3 mph N/A   Clear
5:53 PM 35.1 °F 26.4 °F 15.1 °F 44% 29.94 in 10.0 mi West 12.7 mph - N/A   Clear
6:53 PM 34.0 °F 27.2 °F 14.0 °F 44% 29.98 in 10.0 mi West 8.1 mph - N/A   Clear
7:53 PM 33.1 °F 25.5 °F 14.0 °F 46% 30.02 in 10.0 mi West 9.2 mph 16.1 mph N/A   Clear
8:53 PM 32.0 °F 23.6 °F 15.1 °F 50% 30.04 in 10.0 mi WNW 10.4 mph - N/A   Clear
9:53 PM 32.0 °F 25.6 °F 15.1 °F 50% 30.04 in 10.0 mi West 6.9 mph - N/A   Clear
10:53 PM 30.9 °F 23.5 °F 14.0 °F 50% 30.04 in 10.0 mi West 8.1 mph - N/A   Clear
11:53 PM 30.9 °F 22.8 °F 15.1 °F 52% 30.04 in 10.0 mi WNW 9.2 mph - N/A   Clear